Location: ??????
(38.3184°N, 23.6932°E)
Time: 01:27:57
(UTC+00:00)

Cosmos 1605 Rocket - Pass Details

Date: 16 October 2021
Orbit: 945 x 1006 km, 82.9° (Epoch: 04 December)

Event Time Altitude Azimuth Distance (km) Brightness Sun altitude
Rises 17:02:06 0° 161° (SSE) 3,631 6.8 -15.7°
Reaches altitude 10° 17:04:45 10° 153° (SSE) 2,698 6.1 -16.2°
Maximum altitude 17:10:21 37° 88° (E) 1,463 4.4 -17.3°
Drops below altitude 10° 17:16:04 10° 23° (NNE) 2,752 6.2 -18.5°
Sets 17:18:46 0° 16° (NNE) 3,713 6.9 -19.0°
